contact:dominique.lefevre@mio.osupytheas.fr, maurice.libes@osupytheas.fr, didier.mallarino@osupytheas.fr
Project:EMSO http://www.emso-fr.org/EMSO-France
Depth: 2436.0 m
Title:EMSO Ligure Ouest : Data MII capteur MICROCAT
DateTime_Computer,Latitude,Longitude,Temperature,Conductivity,Pressure,DateTime_Instrument
DateTime_Computer,Latitude,Longitude,degC,S m-1,dbar,DateTime_Instrument
2020-10-28T00:02:44Z,42.805,6.029,13.2984,4.59994,2470.087,2020-10-28T02:03:39Z
2020-10-28T00:05:47Z,42.805,6.029,13.2980,4.59994,2470.077,2020-10-28T02:06:42Z
2020-10-28T00:08:50Z,42.805,6.029,13.2980,4.59990,2470.124,2020-10-28T02:09:45Z
2020-10-28T00:11:53Z,42.805,6.029,13.2979,4.60010,2470.077,2020-10-28T02:12:48Z
2020-10-28T00:14:56Z,42.805,6.029,13.2991,4.60016,2470.053,2020-10-28T02:15:51Z
2020-10-28T00:17:59Z,42.805,6.029,13.2986,4.60006,2470.077,2020-10-28T02:18:55Z
2020-10-28T00:21:03Z,42.805,6.029,13.2983,4.59993,2470.063,2020-10-28T02:21:58Z
2020-10-28T00:24:06Z,42.805,6.029,13.2979,4.59990,2470.077,2020-10-28T02:25:01Z
2020-10-28T00:27:09Z,42.805,6.029,13.2985,4.59991,2470.077,2020-10-28T02:28:04Z
2020-10-28T00:30:12Z,42.805,6.029,13.2986,4.59995,2470.063,2020-10-28T02:31:07Z
2020-10-28T00:33:15Z,42.805,6.029,13.2981,4.59988,2470.1,2020-10-28T02:34:10Z
2020-10-28T00:36:18Z,42.805,6.029,13.2978,4.59987,2470.087,2020-10-28T02:37:13Z
2020-10-28T00:39:21Z,42.805,6.029,13.2983,4.59994,2470.063,2020-10-28T02:40:16Z
2020-10-28T00:42:24Z,42.805,6.029,13.2979,4.59989,2470.087,2020-10-28T02:43:20Z
2020-10-28T00:45:28Z,42.805,6.029,13.2985,4.59990,2470.087,2020-10-28T02:46:23Z
2020-10-28T00:48:31Z,42.805,6.029,13.2985,4.59999,2470.11,2020-10-28T02:49:26Z
2020-10-28T00:51:34Z,42.805,6.029,13.2983,4.60000,2470.077,2020-10-28T02:52:29Z
2020-10-28T00:54:37Z,42.805,6.029,13.2980,4.59988,2470.077,2020-10-28T02:55:32Z
2020-10-28T00:57:40Z,42.805,6.029,13.2974,4.59986,2470.1,2020-10-28T02:58:35Z
2020-10-28T01:00:43Z,42.805,6.029,13.2986,4.60001,2470.087,2020-10-28T03:01:38Z
2020-10-28T01:03:46Z,42.805,6.029,13.2979,4.59991,2470.087,2020-10-28T03:04:41Z
2020-10-28T01:06:49Z,42.805,6.029,13.2977,4.59984,2470.11,2020-10-28T03:07:45Z
2020-10-28T01:09:53Z,42.805,6.029,13.2974,4.59984,2470.1,2020-10-28T03:10:48Z
2020-10-28T01:12:56Z,42.805,6.029,13.2976,4.59985,2470.063,2020-10-28T03:13:51Z
2020-10-28T01:15:59Z,42.805,6.029,13.2981,4.59992,2470.1,2020-10-28T03:16:54Z
2020-10-28T01:19:02Z,42.805,6.029,13.2977,4.59987,2470.087,2020-10-28T03:19:57Z
2020-10-28T01:22:05Z,42.805,6.029,13.2981,4.59989,2470.063,2020-10-28T03:23:00Z
2020-10-28T01:25:08Z,42.805,6.029,13.2979,4.59986,2470.063,2020-10-28T03:26:03Z
2020-10-28T01:28:11Z,42.805,6.029,13.2975,4.59991,2470.087,2020-10-28T03:29:06Z
2020-10-28T01:31:14Z,42.805,6.029,13.2983,4.59999,2470.077,2020-10-28T03:32:09Z
2020-10-28T01:34:18Z,42.805,6.029,13.2984,4.59987,2470.11,2020-10-28T03:35:13Z
2020-10-28T01:37:21Z,42.805,6.029,13.2978,4.59991,2470.11,2020-10-28T03:38:16Z
2020-10-28T01:40:24Z,42.805,6.029,13.2979,4.59986,2470.063,2020-10-28T03:41:19Z
2020-10-28T01:43:27Z,42.805,6.029,13.2977,4.59987,2470.077,2020-10-28T03:44:22Z
2020-10-28T01:46:30Z,42.805,6.029,13.2980,4.59988,2470.087,2020-10-28T03:47:25Z
2020-10-28T01:49:33Z,42.805,6.029,13.2981,4.59988,2470.133,2020-10-28T03:50:28Z
2020-10-28T01:52:36Z,42.805,6.029,13.2983,4.59994,2470.087,2020-10-28T03:53:31Z
2020-10-28T01:55:39Z,42.805,6.029,13.2979,4.59989,2470.1,2020-10-28T03:56:34Z
2020-10-28T01:58:43Z,42.805,6.029,13.2981,4.59986,2470.1,2020-10-28T03:59:38Z
2020-10-28T02:01:46Z,42.805,6.029,13.2983,4.59983,2470.087,2020-10-28T04:02:41Z
2020-10-28T02:04:49Z,42.805,6.029,13.2981,4.59986,2470.1,2020-10-28T04:05:44Z
2020-10-28T02:07:52Z,42.805,6.029,13.2982,4.59988,2470.1,2020-10-28T04:08:47Z
2020-10-28T02:10:55Z,42.805,6.029,13.2983,4.59988,2470.087,2020-10-28T04:11:50Z
2020-10-28T02:13:58Z,42.805,6.029,13.2973,4.59983,2470.087,2020-10-28T04:14:53Z
2020-10-28T02:17:01Z,42.805,6.029,13.2979,4.59985,2470.1,2020-10-28T04:17:56Z
2020-10-28T02:20:04Z,42.805,6.029,13.2981,4.59988,2470.11,2020-10-28T04:20:59Z
2020-10-28T02:23:07Z,42.805,6.029,13.2979,4.59983,2470.087,2020-10-28T04:24:03Z
2020-10-28T02:26:11Z,42.805,6.029,13.2979,4.59986,2470.11,2020-10-28T04:27:06Z
2020-10-28T02:29:14Z,42.805,6.029,13.2974,4.59988,2470.11,2020-10-28T04:30:09Z
2020-10-28T02:32:17Z,42.805,6.029,13.2980,4.59986,2470.133,2020-10-28T04:33:12Z
2020-10-28T02:35:20Z,42.805,6.029,13.2982,4.59984,2470.133,2020-10-28T04:36:15Z
2020-10-28T02:38:23Z,42.805,6.029,13.2979,4.59984,2470.133,2020-10-28T04:39:18Z
2020-10-28T02:41:26Z,42.805,6.029,13.2979,4.59986,2470.124,2020-10-28T04:42:21Z
2020-10-28T02:44:29Z,42.805,6.029,13.2974,4.59987,2470.133,2020-10-28T04:45:24Z
2020-10-28T02:47:32Z,42.805,6.029,13.2977,4.59983,2470.156,2020-10-28T04:48:28Z
2020-10-28T02:50:36Z,42.805,6.029,13.2981,4.59983,2470.147,2020-10-28T04:51:31Z
2020-10-28T02:53:39Z,42.805,6.029,13.2976,4.59983,2470.133,2020-10-28T04:54:34Z
2020-10-28T02:56:42Z,42.805,6.029,13.2979,4.59983,2470.133,2020-10-28T04:57:37Z
2020-10-28T02:59:45Z,42.805,6.029,13.2983,4.59995,2470.156,2020-10-28T05:00:40Z
2020-10-28T03:02:48Z,42.805,6.029,13.2976,4.59991,2470.124,2020-10-28T05:03:43Z
2020-10-28T03:05:51Z,42.805,6.029,13.2979,4.59985,2470.147,2020-10-28T05:06:46Z
2020-10-28T03:08:54Z,42.805,6.029,13.2975,4.59988,2470.171,2020-10-28T05:09:49Z
2020-10-28T03:11:57Z,42.805,6.029,13.2978,4.59984,2470.156,2020-10-28T05:12:53Z
2020-10-28T03:15:01Z,42.805,6.029,13.2982,4.59986,2470.133,2020-10-28T05:15:56Z
2020-10-28T03:18:04Z,42.805,6.029,13.2979,4.59988,2470.156,2020-10-28T05:18:59Z
2020-10-28T03:21:07Z,42.805,6.029,13.2979,4.59987,2470.147,2020-10-28T05:22:02Z
2020-10-28T03:24:10Z,42.805,6.029,13.2980,4.59987,2470.156,2020-10-28T05:25:05Z
2020-10-28T03:27:13Z,42.805,6.029,13.2979,4.59982,2470.156,2020-10-28T05:28:08Z
2020-10-28T03:30:16Z,42.805,6.029,13.2982,4.59987,2470.171,2020-10-28T05:31:11Z
2020-10-28T03:33:19Z,42.805,6.029,13.2976,4.59983,2470.217,2020-10-28T05:34:14Z
2020-10-28T03:36:22Z,42.805,6.029,13.2976,4.59996,2470.147,2020-10-28T05:37:18Z
2020-10-28T03:39:26Z,42.805,6.029,13.2977,4.59983,2470.18,2020-10-28T05:40:21Z
2020-10-28T03:42:29Z,42.805,6.029,13.2976,4.59984,2470.18,2020-10-28T05:43:24Z
2020-10-28T03:45:32Z,42.805,6.029,13.2974,4.59986,2470.171,2020-10-28T05:46:27Z
2020-10-28T03:48:35Z,42.805,6.029,13.2978,4.59983,2470.18,2020-10-28T05:49:30Z
2020-10-28T03:51:38Z,42.805,6.029,13.2982,4.59997,2470.18,2020-10-28T05:52:33Z
2020-10-28T03:54:41Z,42.805,6.029,13.2977,4.59989,2470.194,2020-10-28T05:55:36Z
2020-10-28T03:57:44Z,42.805,6.029,13.2978,4.59986,2470.18,2020-10-28T05:58:39Z
2020-10-28T04:00:47Z,42.805,6.029,13.2979,4.59990,2470.203,2020-10-28T06:01:43Z
2020-10-28T04:03:51Z,42.805,6.029,13.2977,4.59985,2470.156,2020-10-28T06:04:46Z
2020-10-28T04:06:54Z,42.805,6.029,13.2979,4.59984,2470.156,2020-10-28T06:07:49Z
2020-10-28T04:09:57Z,42.805,6.029,13.2981,4.59988,2470.203,2020-10-28T06:10:52Z
2020-10-28T04:13:00Z,42.805,6.029,13.2979,4.59981,2470.217,2020-10-28T06:13:55Z
2020-10-28T04:16:03Z,42.805,6.029,13.2982,4.59983,2470.18,2020-10-28T06:16:58Z
2020-10-28T04:19:06Z,42.805,6.029,13.2982,4.59990,2470.156,2020-10-28T06:20:01Z
2020-10-28T04:22:09Z,42.805,6.029,13.2982,4.59986,2470.194,2020-10-28T06:23:04Z
2020-10-28T04:25:12Z,42.805,6.029,13.2977,4.59985,2470.18,2020-10-28T06:26:07Z
2020-10-28T04:28:16Z,42.805,6.029,13.2979,4.59985,2470.18,2020-10-28T06:29:11Z
2020-10-28T04:31:19Z,42.805,6.029,13.2979,4.59985,2470.203,2020-10-28T06:32:14Z
2020-10-28T04:34:22Z,42.805,6.029,13.2979,4.59986,2470.217,2020-10-28T06:35:17Z
2020-10-28T04:37:25Z,42.805,6.029,13.2979,4.59983,2470.18,2020-10-28T06:38:20Z
2020-10-28T04:40:28Z,42.805,6.029,13.2979,4.59984,2470.171,2020-10-28T06:41:23Z
2020-10-28T04:43:31Z,42.805,6.029,13.2982,4.59984,2470.203,2020-10-28T06:44:26Z
2020-10-28T04:46:34Z,42.805,6.029,13.2978,4.59983,2470.194,2020-10-28T06:47:29Z
2020-10-28T04:49:37Z,42.805,6.029,13.2976,4.59983,2470.203,2020-10-28T06:50:33Z
2020-10-28T04:52:41Z,42.805,6.029,13.2976,4.59983,2470.203,2020-10-28T06:53:36Z
2020-10-28T04:55:44Z,42.805,6.029,13.2981,4.59983,2470.18,2020-10-28T06:56:39Z
2020-10-28T04:58:47Z,42.805,6.029,13.2977,4.59986,2470.18,2020-10-28T06:59:42Z
2020-10-28T05:01:50Z,42.805,6.029,13.2979,4.59986,2470.217,2020-10-28T07:02:45Z
2020-10-28T05:04:53Z,42.805,6.029,13.2980,4.59982,2470.203,2020-10-28T07:05:48Z
2020-10-28T05:07:56Z,42.805,6.029,13.2978,4.59984,2470.217,2020-10-28T07:08:51Z
2020-10-28T05:10:59Z,42.805,6.029,13.2982,4.59986,2470.217,2020-10-28T07:11:54Z
2020-10-28T05:14:02Z,42.805,6.029,13.2977,4.59983,2470.203,2020-10-28T07:14:57Z
2020-10-28T05:17:06Z,42.805,6.029,13.2976,4.59986,2470.217,2020-10-28T07:18:01Z
2020-10-28T05:20:09Z,42.805,6.029,13.2979,4.59987,2470.156,2020-10-28T07:21:04Z
2020-10-28T05:23:12Z,42.805,6.029,13.2982,4.59984,2470.217,2020-10-28T07:24:07Z
2020-10-28T05:26:15Z,42.805,6.029,13.2979,4.59983,2470.18,2020-10-28T07:27:10Z
2020-10-28T05:29:18Z,42.805,6.029,13.2974,4.59984,2470.203,2020-10-28T07:30:13Z
2020-10-28T05:32:21Z,42.805,6.029,13.2977,4.59981,2470.203,2020-10-28T07:33:16Z
2020-10-28T05:35:24Z,42.805,6.029,13.2981,4.59985,2470.203,2020-10-28T07:36:19Z
2020-10-28T05:38:27Z,42.805,6.029,13.2976,4.59982,2470.18,2020-10-28T07:39:22Z
2020-10-28T05:41:31Z,42.805,6.029,13.2981,4.59982,2470.203,2020-10-28T07:42:26Z
2020-10-28T05:44:34Z,42.805,6.029,13.2979,4.59985,2470.18,2020-10-28T07:45:29Z
2020-10-28T05:47:37Z,42.805,6.029,13.2975,4.59983,2470.18,2020-10-28T07:48:32Z
2020-10-28T05:50:40Z,42.805,6.029,13.2981,4.59986,2470.203,2020-10-28T07:51:35Z
2020-10-28T05:53:43Z,42.805,6.029,13.2979,4.59984,2470.217,2020-10-28T07:54:38Z
2020-10-28T05:56:46Z,42.805,6.029,13.2976,4.59983,2470.18,2020-10-28T07:57:41Z
2020-10-28T05:59:49Z,42.805,6.029,13.2978,4.59982,2470.18,2020-10-28T08:00:44Z
2020-10-28T06:02:52Z,42.805,6.029,13.2977,4.59983,2470.18,2020-10-28T08:03:47Z
2020-10-28T06:05:56Z,42.805,6.029,13.2982,4.59986,2470.203,2020-10-28T08:06:51Z
2020-10-28T06:08:59Z,42.805,6.029,13.2979,4.59986,2470.217,2020-10-28T08:09:54Z
2020-10-28T06:12:02Z,42.805,6.029,13.2982,4.59984,2470.217,2020-10-28T08:12:57Z
2020-10-28T06:15:05Z,42.805,6.029,13.2977,4.59983,2470.217,2020-10-28T08:16:00Z
2020-10-28T06:18:08Z,42.805,6.029,13.2978,4.59982,2470.217,2020-10-28T08:19:03Z
2020-10-28T06:21:11Z,42.805,6.029,13.2978,4.59986,2470.18,2020-10-28T08:22:06Z
2020-10-28T06:24:14Z,42.805,6.029,13.2982,4.59988,2470.18,2020-10-28T08:25:09Z
2020-10-28T06:27:17Z,42.805,6.029,13.2977,4.59990,2470.18,2020-10-28T08:28:12Z
2020-10-28T06:30:20Z,42.805,6.029,13.2979,4.59986,2470.203,2020-10-28T08:31:16Z
2020-10-28T06:33:24Z,42.805,6.029,13.2978,4.59990,2470.203,2020-10-28T08:34:19Z
2020-10-28T06:36:27Z,42.805,6.029,13.2979,4.59997,2470.194,2020-10-28T08:37:22Z
2020-10-28T06:39:30Z,42.805,6.029,13.2979,4.59985,2470.203,2020-10-28T08:40:25Z
2020-10-28T06:42:33Z,42.805,6.029,13.2983,4.59985,2470.203,2020-10-28T08:43:28Z
2020-10-28T06:45:36Z,42.805,6.029,13.2978,4.59984,2470.18,2020-10-28T08:46:31Z
2020-10-28T06:48:39Z,42.805,6.029,13.2979,4.59986,2470.18,2020-10-28T08:49:34Z
2020-10-28T06:51:42Z,42.805,6.029,13.2979,4.59985,2470.18,2020-10-28T08:52:37Z
2020-10-28T06:54:45Z,42.805,6.029,13.2975,4.59986,2470.203,2020-10-28T08:55:41Z
2020-10-28T06:57:49Z,42.805,6.029,13.2975,4.59986,2470.203,2020-10-28T08:58:44Z
2020-10-28T07:00:52Z,42.805,6.029,13.2980,4.59986,2470.156,2020-10-28T09:01:47Z
2020-10-28T07:03:55Z,42.805,6.029,13.2984,4.59999,2470.217,2020-10-28T09:04:50Z
2020-10-28T07:06:58Z,42.805,6.029,13.2982,4.59989,2470.194,2020-10-28T09:07:53Z
2020-10-28T07:10:01Z,42.805,6.029,13.2980,4.59985,2470.203,2020-10-28T09:10:56Z
2020-10-28T07:13:04Z,42.805,6.029,13.2981,4.59989,2470.203,2020-10-28T09:13:59Z
2020-10-28T07:16:07Z,42.805,6.029,13.2977,4.59988,2470.18,2020-10-28T09:17:02Z
2020-10-28T07:19:10Z,42.805,6.029,13.2982,4.59984,2470.18,2020-10-28T09:20:05Z
2020-10-28T07:22:14Z,42.805,6.029,13.2983,4.59986,2470.171,2020-10-28T09:23:09Z
2020-10-28T07:25:17Z,42.805,6.029,13.2979,4.59986,2470.18,2020-10-28T09:26:12Z
2020-10-28T07:28:20Z,42.805,6.029,13.2979,4.59985,2470.203,2020-10-28T09:29:15Z
2020-10-28T07:31:23Z,42.805,6.029,13.2983,4.59993,2470.194,2020-10-28T09:32:18Z
2020-10-28T07:34:26Z,42.805,6.029,13.2984,4.59986,2470.217,2020-10-28T09:35:21Z
2020-10-28T07:37:29Z,42.805,6.029,13.2981,4.59986,2470.203,2020-10-28T09:38:24Z
2020-10-28T07:40:32Z,42.805,6.029,13.2979,4.59987,2470.217,2020-10-28T09:41:27Z
2020-10-28T07:43:35Z,42.805,6.029,13.2979,4.59985,2470.203,2020-10-28T09:44:30Z
2020-10-28T07:46:38Z,42.805,6.029,13.2980,4.59986,2470.156,2020-10-28T09:47:34Z
2020-10-28T07:49:42Z,42.805,6.029,13.2979,4.59996,2470.194,2020-10-28T09:50:37Z
2020-10-28T07:52:45Z,42.805,6.029,13.2980,4.59983,2470.194,2020-10-28T09:53:40Z
2020-10-28T07:55:48Z,42.805,6.029,13.2984,4.59987,2470.194,2020-10-28T09:56:43Z
2020-10-28T07:58:51Z,42.805,6.029,13.2980,4.59999,2470.18,2020-10-28T09:59:46Z
2020-10-28T08:01:54Z,42.805,6.029,13.2980,4.59988,2470.156,2020-10-28T10:02:49Z
2020-10-28T08:04:57Z,42.805,6.029,13.2977,4.59986,2470.18,2020-10-28T10:05:52Z
2020-10-28T08:08:00Z,42.805,6.029,13.2977,4.59987,2470.194,2020-10-28T10:08:55Z
2020-10-28T08:11:03Z,42.805,6.029,13.2980,4.59988,2470.147,2020-10-28T10:11:59Z
2020-10-28T08:14:07Z,42.805,6.029,13.2983,4.59996,2470.156,2020-10-28T10:15:02Z
2020-10-28T08:17:10Z,42.805,6.029,13.2979,4.59989,2470.171,2020-10-28T10:18:05Z
2020-10-28T08:20:13Z,42.805,6.029,13.2983,4.59985,2470.156,2020-10-28T10:21:08Z
2020-10-28T08:23:16Z,42.805,6.029,13.2979,4.59988,2470.156,2020-10-28T10:24:11Z
2020-10-28T08:26:19Z,42.805,6.029,13.2974,4.59988,2470.217,2020-10-28T10:27:14Z
2020-10-28T08:29:22Z,42.805,6.029,13.2985,4.60004,2470.18,2020-10-28T10:30:17Z
2020-10-28T08:32:25Z,42.805,6.029,13.2976,4.59986,2470.194,2020-10-28T10:33:20Z
2020-10-28T08:35:28Z,42.805,6.029,13.2979,4.59990,2470.156,2020-10-28T10:36:24Z
2020-10-28T08:38:32Z,42.805,6.029,13.2979,4.59986,2470.156,2020-10-28T10:39:27Z
2020-10-28T08:41:35Z,42.805,6.029,13.2981,4.59987,2470.171,2020-10-28T10:42:30Z
2020-10-28T08:44:38Z,42.805,6.029,13.2979,4.59986,2470.171,2020-10-28T10:45:33Z
2020-10-28T08:47:41Z,42.805,6.029,13.2982,4.59988,2470.217,2020-10-28T10:48:36Z
2020-10-28T08:50:44Z,42.805,6.029,13.2980,4.59988,2470.166,2020-10-28T10:51:39Z
2020-10-28T08:53:47Z,42.805,6.029,13.2982,4.59991,2470.147,2020-10-28T10:54:42Z
2020-10-28T08:56:50Z,42.805,6.029,13.2982,4.59986,2470.171,2020-10-28T10:57:45Z
2020-10-28T08:59:53Z,42.805,6.029,13.2979,4.59984,2470.194,2020-10-28T11:00:49Z
2020-10-28T09:02:57Z,42.805,6.029,13.2979,4.59983,2470.133,2020-10-28T11:03:52Z
2020-10-28T09:06:00Z,42.805,6.029,13.2977,4.59993,2470.133,2020-10-28T11:06:55Z
2020-10-28T09:09:03Z,42.805,6.029,13.2979,4.59986,2470.133,2020-10-28T11:09:58Z
2020-10-28T09:12:06Z,42.805,6.029,13.2977,4.59985,2470.147,2020-10-28T11:13:01Z
2020-10-28T09:15:09Z,42.805,6.029,13.2982,4.59987,2470.18,2020-10-28T11:16:04Z
2020-10-28T09:18:12Z,42.805,6.029,13.2982,4.59986,2470.133,2020-10-28T11:19:07Z
2020-10-28T09:21:15Z,42.805,6.029,13.2986,4.59994,2470.156,2020-10-28T11:22:10Z
2020-10-28T09:24:18Z,42.805,6.029,13.2982,4.59986,2470.133,2020-10-28T11:25:14Z
2020-10-28T09:27:22Z,42.805,6.029,13.2979,4.59997,2470.133,2020-10-28T11:28:17Z
2020-10-28T09:30:25Z,42.805,6.029,13.2979,4.59987,2470.11,2020-10-28T11:31:20Z
2020-10-28T09:33:28Z,42.805,6.029,13.2979,4.59988,2470.147,2020-10-28T11:34:23Z
2020-10-28T09:36:31Z,42.805,6.029,13.2978,4.59984,2470.143,2020-10-28T11:37:26Z
2020-10-28T09:39:34Z,42.805,6.029,13.2985,4.59986,2470.156,2020-10-28T11:40:29Z
2020-10-28T09:42:37Z,42.805,6.029,13.2985,4.59986,2470.087,2020-10-28T11:43:32Z
2020-10-28T09:45:40Z,42.805,6.029,13.2979,4.59996,2470.147,2020-10-28T11:46:35Z
2020-10-28T09:48:44Z,42.805,6.029,13.2982,4.59991,2470.133,2020-10-28T11:49:39Z
2020-10-28T09:51:47Z,42.805,6.029,13.2976,4.59987,2470.133,2020-10-28T11:52:42Z
2020-10-28T09:54:50Z,42.805,6.029,13.2982,4.59996,2470.147,2020-10-28T11:55:45Z
2020-10-28T09:57:53Z,42.805,6.029,13.2982,4.59995,2470.171,2020-10-28T11:58:48Z
2020-10-28T10:00:56Z,42.805,6.029,13.2982,4.59999,2470.133,2020-10-28T12:01:51Z
2020-10-28T10:03:59Z,42.805,6.029,13.2982,4.59991,2470.124,2020-10-28T12:04:54Z
2020-10-28T10:07:02Z,42.805,6.029,13.2982,4.59988,2470.124,2020-10-28T12:07:57Z
2020-10-28T10:10:05Z,42.805,6.029,13.2980,4.59984,2470.124,2020-10-28T12:11:01Z
2020-10-28T10:13:09Z,42.805,6.029,13.2983,4.59986,2470.133,2020-10-28T12:14:04Z
2020-10-28T10:16:12Z,42.805,6.029,13.2979,4.59992,2470.133,2020-10-28T12:17:07Z
2020-10-28T10:19:15Z,42.805,6.029,13.2982,4.59987,2470.133,2020-10-28T12:20:10Z
2020-10-28T10:22:18Z,42.805,6.029,13.2982,4.59990,2470.133,2020-10-28T12:23:13Z
2020-10-28T10:25:21Z,42.805,6.029,13.2981,4.59986,2470.171,2020-10-28T12:26:16Z
2020-10-28T10:28:24Z,42.805,6.029,13.2986,4.59988,2470.124,2020-10-28T12:29:19Z
2020-10-28T10:31:27Z,42.805,6.029,13.2982,4.59988,2470.11,2020-10-28T12:32:22Z
2020-10-28T10:34:30Z,42.805,6.029,13.2976,4.59994,2470.11,2020-10-28T12:35:26Z
2020-10-28T10:37:34Z,42.805,6.029,13.2980,4.59988,2470.11,2020-10-28T12:38:29Z
2020-10-28T10:40:37Z,42.805,6.029,13.2983,4.59995,2470.133,2020-10-28T12:41:32Z
2020-10-28T10:43:40Z,42.805,6.029,13.2977,4.59986,2470.156,2020-10-28T12:44:35Z
2020-10-28T10:46:43Z,42.805,6.029,13.2985,4.60003,2470.124,2020-10-28T12:47:38Z
2020-10-28T10:49:46Z,42.805,6.029,13.2982,4.59988,2470.171,2020-10-28T12:50:41Z
2020-10-28T10:52:49Z,42.805,6.029,13.2976,4.59988,2470.073,2020-10-28T12:53:44Z
2020-10-28T10:55:52Z,42.805,6.029,13.2984,4.59988,2470.087,2020-10-28T12:56:47Z
2020-10-28T10:58:55Z,42.805,6.029,13.2981,4.59984,2470.11,2020-10-28T12:59:51Z
2020-10-28T11:01:59Z,42.805,6.029,13.2980,4.59987,2470.11,2020-10-28T13:02:54Z
2020-10-28T11:05:02Z,42.805,6.029,13.2980,4.59989,2470.156,2020-10-28T13:05:57Z
2020-10-28T11:08:05Z,42.805,6.029,13.2983,4.59989,2470.133,2020-10-28T13:09:00Z
2020-10-28T11:11:08Z,42.805,6.029,13.2980,4.59986,2470.1,2020-10-28T13:12:03Z
2020-10-28T11:14:11Z,42.805,6.029,13.2983,4.59994,2470.11,2020-10-28T13:15:06Z
2020-10-28T11:17:14Z,42.805,6.029,13.2978,4.59987,2470.11,2020-10-28T13:18:09Z
2020-10-28T11:20:17Z,42.805,6.029,13.2985,4.60002,2470.124,2020-10-28T13:21:12Z
2020-10-28T11:23:20Z,42.805,6.029,13.2985,4.59994,2470.087,2020-10-28T13:24:16Z
2020-10-28T11:26:24Z,42.805,6.029,13.2981,4.59989,2470.11,2020-10-28T13:27:19Z
2020-10-28T11:29:27Z,42.805,6.029,13.2982,4.59994,2470.124,2020-10-28T13:30:22Z
2020-10-28T11:32:30Z,42.805,6.029,13.2983,4.59990,2470.11,2020-10-28T13:33:25Z
2020-10-28T11:35:33Z,42.805,6.029,13.2981,4.59990,2470.11,2020-10-28T13:36:28Z
2020-10-28T11:38:36Z,42.805,6.029,13.2980,4.59994,2470.087,2020-10-28T13:39:31Z
2020-10-28T11:41:39Z,42.805,6.029,13.2982,4.59989,2470.124,2020-10-28T13:42:34Z
2020-10-28T11:44:42Z,42.805,6.029,13.2986,4.59989,2470.11,2020-10-28T13:45:37Z
2020-10-28T11:47:45Z,42.805,6.029,13.2981,4.59991,2470.087,2020-10-28T13:48:41Z
2020-10-28T11:50:49Z,42.805,6.029,13.2982,4.59988,2470.077,2020-10-28T13:51:44Z
2020-10-28T11:53:52Z,42.805,6.029,13.2981,4.59986,2470.087,2020-10-28T13:54:47Z
2020-10-28T11:56:55Z,42.805,6.029,13.2986,4.59994,2470.087,2020-10-28T13:57:50Z
2020-10-28T11:59:58Z,42.805,6.029,13.2986,4.60003,2470.11,2020-10-28T14:00:53Z
2020-10-28T12:03:01Z,42.805,6.029,13.2985,4.59996,2470.087,2020-10-28T14:03:56Z
2020-10-28T12:06:04Z,42.805,6.029,13.2992,4.59997,2470.087,2020-10-28T14:06:59Z
2020-10-28T12:09:07Z,42.805,6.029,13.2986,4.59998,2470.053,2020-10-28T14:10:02Z
2020-10-28T12:12:10Z,42.805,6.029,13.2987,4.59998,2470.133,2020-10-28T14:13:06Z
2020-10-28T12:15:14Z,42.805,6.029,13.2983,4.60003,2470.124,2020-10-28T14:16:09Z
2020-10-28T12:18:17Z,42.805,6.029,13.2985,4.60006,2470.077,2020-10-28T14:19:12Z
2020-10-28T12:21:20Z,42.805,6.029,13.2983,4.60010,2470.087,2020-10-28T14:22:15Z
2020-10-28T12:24:23Z,42.805,6.029,13.2980,4.59992,2470.087,2020-10-28T14:25:18Z
2020-10-28T12:27:26Z,42.805,6.029,13.2986,4.59995,2470.087,2020-10-28T14:28:21Z
2020-10-28T12:30:29Z,42.805,6.029,13.2990,4.60015,2470.087,2020-10-28T14:31:24Z
2020-10-28T12:33:32Z,42.805,6.029,13.2990,4.60009,2470.077,2020-10-28T14:34:27Z
2020-10-28T12:36:36Z,42.805,6.029,13.2982,4.60014,2470.171,2020-10-28T14:37:31Z
2020-10-28T12:39:39Z,42.805,6.029,13.2986,4.60003,2470.087,2020-10-28T14:40:34Z
2020-10-28T12:42:42Z,42.805,6.029,13.2993,4.60010,2470.087,2020-10-28T14:43:37Z
2020-10-28T12:45:45Z,42.805,6.029,13.2978,4.59990,2470.11,2020-10-28T14:46:40Z
2020-10-28T12:48:48Z,42.805,6.029,13.2983,4.59989,2470.11,2020-10-28T14:49:43Z
2020-10-28T12:51:51Z,42.805,6.029,13.2982,4.59994,2470.087,2020-10-28T14:52:46Z
2020-10-28T12:54:54Z,42.805,6.029,13.2978,4.59991,2470.133,2020-10-28T14:55:49Z
2020-10-28T12:57:57Z,42.805,6.029,13.2985,4.59999,2470.11,2020-10-28T14:58:53Z
2020-10-28T13:01:01Z,42.805,6.029,13.2982,4.60009,2470.087,2020-10-28T15:01:56Z
2020-10-28T13:04:04Z,42.805,6.029,13.2988,4.60009,2470.11,2020-10-28T15:04:59Z
2020-10-28T13:07:07Z,42.805,6.029,13.2991,4.60009,2470.11,2020-10-28T15:08:02Z
2020-10-28T13:10:10Z,42.805,6.029,13.2993,4.60014,2470.147,2020-10-28T15:11:05Z
2020-10-28T13:13:13Z,42.805,6.029,13.2989,4.60007,2470.124,2020-10-28T15:14:08Z
2020-10-28T13:16:16Z,42.805,6.029,13.2983,4.60008,2470.11,2020-10-28T15:17:11Z
2020-10-28T13:19:19Z,42.805,6.029,13.2987,4.60007,2470.11,2020-10-28T15:20:14Z
2020-10-28T13:22:22Z,42.805,6.029,13.2982,4.59991,2470.087,2020-10-28T15:23:18Z
2020-10-28T13:25:26Z,42.805,6.029,13.2989,4.59992,2470.11,2020-10-28T15:26:21Z
2020-10-28T13:28:29Z,42.805,6.029,13.2991,4.60001,2470.124,2020-10-28T15:29:24Z
2020-10-28T13:31:32Z,42.805,6.029,13.2991,4.60011,2470.133,2020-10-28T15:32:27Z
2020-10-28T13:34:35Z,42.805,6.029,13.2982,4.59989,2470.124,2020-10-28T15:35:30Z
2020-10-28T13:37:38Z,42.805,6.029,13.2986,4.60004,2470.133,2020-10-28T15:38:33Z
2020-10-28T13:40:41Z,42.805,6.029,13.2981,4.59991,2470.11,2020-10-28T15:41:36Z
2020-10-28T13:43:44Z,42.805,6.029,13.2998,4.60013,2470.133,2020-10-28T15:44:39Z
2020-10-28T13:46:47Z,42.805,6.029,13.2993,4.60016,2470.11,2020-10-28T15:47:43Z
2020-10-28T13:49:51Z,42.805,6.029,13.2994,4.60011,2470.147,2020-10-28T15:50:46Z
2020-10-28T13:52:54Z,42.805,6.029,13.2992,4.60015,2470.133,2020-10-28T15:53:49Z
2020-10-28T13:55:57Z,42.805,6.029,13.2986,4.60011,2470.156,2020-10-28T15:56:52Z
2020-10-28T13:59:00Z,42.805,6.029,13.2989,4.60006,2470.147,2020-10-28T15:59:55Z
2020-10-28T14:02:03Z,42.805,6.029,13.2983,4.59990,2470.124,2020-10-28T16:02:58Z
2020-10-28T14:05:06Z,42.805,6.029,13.2981,4.59988,2470.124,2020-10-28T16:06:01Z
2020-10-28T14:08:09Z,42.805,6.029,13.2984,4.59992,2470.171,2020-10-28T16:09:04Z
2020-10-28T14:11:12Z,42.805,6.029,13.2997,4.60011,2470.147,2020-10-28T16:12:08Z
2020-10-28T14:14:16Z,42.805,6.029,13.2993,4.59996,2470.147,2020-10-28T16:15:11Z
2020-10-28T14:17:19Z,42.805,6.029,13.2991,4.59996,2470.156,2020-10-28T16:18:14Z
2020-10-28T14:20:22Z,42.805,6.029,13.2974,4.59988,2470.147,2020-10-28T16:21:17Z
2020-10-28T14:23:25Z,42.805,6.029,13.2982,4.59998,2470.171,2020-10-28T16:24:20Z
2020-10-28T14:26:28Z,42.805,6.029,13.2991,4.60011,2470.147,2020-10-28T16:27:23Z
2020-10-28T14:29:31Z,42.805,6.029,13.2994,4.60008,2470.156,2020-10-28T16:30:26Z
2020-10-28T14:32:34Z,42.805,6.029,13.2989,4.60009,2470.171,2020-10-28T16:33:29Z
2020-10-28T14:35:37Z,42.805,6.029,13.2990,4.60010,2470.18,2020-10-28T16:36:33Z
2020-10-28T14:38:41Z,42.805,6.029,13.2988,4.60009,2470.18,2020-10-28T16:39:36Z
2020-10-28T14:41:44Z,42.805,6.029,13.2987,4.60006,2470.18,2020-10-28T16:42:39Z
2020-10-28T14:44:47Z,42.805,6.029,13.2992,4.60018,2470.18,2020-10-28T16:45:42Z
2020-10-28T14:47:50Z,42.805,6.029,13.2986,4.60007,2470.18,2020-10-28T16:48:45Z
2020-10-28T14:50:53Z,42.805,6.029,13.2983,4.59994,2470.194,2020-10-28T16:51:48Z
2020-10-28T14:53:56Z,42.805,6.029,13.2986,4.59998,2470.217,2020-10-28T16:54:51Z
2020-10-28T14:56:59Z,42.805,6.029,13.2996,4.60012,2470.194,2020-10-28T16:57:55Z
2020-10-28T15:00:03Z,42.805,6.029,13.2993,4.60008,2470.203,2020-10-28T17:00:58Z
2020-10-28T15:03:06Z,42.805,6.029,13.2993,4.60003,2470.18,2020-10-28T17:04:01Z